Weather History for Jonesboro, AR

Change the Weather History Date:

Sunday, April 28, 2013

  Actual Average Record
Temperature  
Mean Temperature 57 °F 64 °F  
Max Temperature 66 °F 74 °F 94 °F (1901)
Min Temperature 48 °F 53 °F 36 °F (1992)
Degree Days  
Heating Degree Days 8 3  
Month to date heating degree days 239 190  
Since 1 July heating degree days 3482 3610  
Cooling Degree Days 0 2  
Month to date cooling degree days 46 37  
Year to date cooling degree days 46 43  
Growing Degree Days 9 (Base 50)    
Moisture  
Dew Point 53 °F    
Average Humidity 80    
Maximum Humidity 93    
Minimum Humidity 67    
Precipitation  
Precipitation 0.00 in 0.17 in 2.39 in (2009)
Month to date precipitation 4.65 4.61  
Year to date precipitation 16.53 16.26  
Snow  
Snow 0.00 in 0.00 in - ()
Month to date snowfall 0.0 0.0  
Since 1 July snowfall 11.0 4.8  
Snow Depth 0.00 in    
Sea Level Pressure  
Sea Level Pressure 29.97 in    
Wind  
Wind Speed 5 mph (West)    
Max Wind Speed 15 mph    
Max Gust Speed 29 mph    
Visibility 10 miles    
Events      
T = Trace of Precipitation, MM = Missing Value Source: NWS Daily Summary

Daily Weather History Graph

Daily Weather History Graph

Search for Another Location

Airport:

Trip Planner

Search our weather history database for the weather conditions in past years. The results will help you decide how hot, cold, wet, or windy it might be!

Date:

Astronomy

Apr. 28, 2013 Rise Set
Actual Time 6:13 AM CDT 7:47 PM CDT
Civil Twilight 5:46 AM CDT 8:14 PM CDT
Nautical Twilight 5:13 AM CDT 8:47 PM CDT
Astronomical Twilight 4:39 AM CDT 9:21 PM CDT
Moon 11:14 PM CDT (4/28) 8:33 AM CDT (4/28)
Length of Visible Light 14h 28m
Length of Day
13h 33m
Waning Gibbous, 88% of the Moon is Illuminated
Apr 28
Waning Gibbous
May 2
Last Quarter
May 9
New
May 17
First Quarter
May 24
Full

Hourly Weather History & Observations

Time (CDT) Temp. Dew Point Humidity Pressure Visibility Wind Dir Wind Speed Gust Speed Precip Events Conditions
12:53 AM 57.9 °F 55.0 °F 90% 29.97 in 10.0 mi West 4.6 mph - N/A   Overcast
1:53 AM 57.9 °F 55.9 °F 93% 29.96 in 10.0 mi Calm Calm - N/A   Overcast
2:05 AM 57.2 °F 55.4 °F 94% 29.95 in 10.0 mi West 5.8 mph - N/A   Overcast
2:12 AM 57.2 °F 55.4 °F 94% 29.95 in 10.0 mi WNW 4.6 mph - N/A   Overcast
2:53 AM 57.0 °F 55.0 °F 93% 29.94 in 10.0 mi Calm Calm - N/A   Overcast
3:42 AM 55.4 °F 53.6 °F 94% 29.95 in 10.0 mi WSW 4.6 mph - N/A   Overcast
3:53 AM 55.0 °F 54.0 °F 96% 29.95 in 10.0 mi WSW 4.6 mph - N/A   Overcast
4:53 AM 57.0 °F 55.0 °F 93% 29.95 in 10.0 mi West 5.8 mph - N/A   Overcast
5:02 AM 55.4 °F 53.6 °F 94% 29.95 in 10.0 mi West 3.5 mph - N/A   Overcast
5:22 AM 55.4 °F 53.6 °F 94% 29.94 in 10.0 mi West 3.5 mph - N/A   Overcast
5:35 AM 55.4 °F 53.6 °F 94% 29.94 in 10.0 mi West 3.5 mph - N/A   Mostly Cloudy
5:53 AM 55.9 °F 53.1 °F 90% 29.94 in 10.0 mi West 5.8 mph - N/A   Mostly Cloudy
6:29 AM 57.2 °F 53.6 °F 88% 29.97 in 10.0 mi SW 4.6 mph - N/A   Overcast
6:53 AM 57.0 °F 54.0 °F 89% 29.97 in 10.0 mi West 4.6 mph - N/A   Overcast
7:03 AM 57.2 °F 53.6 °F 88% 29.98 in 10.0 mi West 3.5 mph - N/A   Overcast
7:12 AM 57.2 °F 53.6 °F 88% 29.99 in 10.0 mi West 5.8 mph - N/A   Overcast
7:53 AM 57.2 °F 53.6 °F 88% 29.99 in 10.0 mi WNW 5.8 mph - N/A   Overcast
8:53 AM 57.0 °F 53.1 °F 87% 30.00 in 10.0 mi WNW 5.8 mph - N/A   Overcast
9:53 AM 59.0 °F 52.0 °F 78% 29.99 in 10.0 mi WNW 10.4 mph - N/A   Overcast
10:53 AM 59.0 °F 51.1 °F 75% 30.00 in 10.0 mi WNW 10.4 mph 17.3 mph N/A   Overcast
11:53 AM 59.0 °F 51.1 °F 75% 29.99 in 10.0 mi NW 10.4 mph - N/A   Overcast
12:53 PM 61.0 °F 51.1 °F 70% 29.99 in 10.0 mi NNW 4.6 mph - N/A   Overcast
1:17 PM 60.8 °F 51.8 °F 72% 30.00 in 10.0 mi WNW 6.9 mph - N/A   Overcast
1:53 PM 61.0 °F 52.0 °F 72% 29.99 in 10.0 mi WSW 6.9 mph - N/A   Overcast
2:53 PM 63.0 °F 52.0 °F 67% 29.98 in 10.0 mi West 4.6 mph - N/A   Overcast
3:53 PM 64.4 °F 53.6 °F 68% 29.95 in 10.0 mi Calm Calm - N/A   Mostly Cloudy
4:53 PM 64.9 °F 53.1 °F 65% 29.95 in 10.0 mi WNW 3.5 mph - N/A   Scattered Clouds
5:53 PM 64.0 °F 53.1 °F 67% 29.95 in 10.0 mi South 4.6 mph - N/A   Overcast
6:53 PM 62.6 °F 53.6 °F 72% 29.95 in 10.0 mi SW 5.8 mph - N/A   Mostly Cloudy
7:53 PM 59.0 °F 52.0 °F 78% 29.95 in 10.0 mi SW 4.6 mph - N/A   Clear
8:53 PM 55.0 °F 51.1 °F 86% 29.96 in 10.0 mi WSW 3.5 mph - N/A   Clear
9:53 PM 54.0 °F 50.0 °F 86% 29.97 in 10.0 mi West 4.6 mph - N/A   Clear
10:53 PM 54.0 °F 51.1 °F 90% 29.96 in 10.0 mi West 4.6 mph - N/A   Clear
11:53 PM 52.0 °F 48.9 °F 89% 29.95 in 10.0 mi West 4.6 mph - N/A   Clear